This is the latest recevied weather packets stored in our database for station/object ZB2YN-13. If no packets are shown the sender has not sent any weather packets the latest 10 day(s).
| Time | Temp. | Humidity | Pressure | Rain* | Wind** | Luminosity | Snow |
|---|---|---|---|---|---|---|---|
| 1778050806 | 16.11° C | 82% | 1003.8 hPa | 0 mm | - | - | - |
| 1778047206 | 15° C | 85% | 1003.4 hPa | 0 mm | - | - | - |
| 1778043605 | 15° C | 84% | 1003.5 hPa | 0 mm | - | - | - |
| 1778040005 | 15.56° C | 85% | 1003.3 hPa | 0 mm | - | - | - |
| 1778036405 | 15.56° C | 83% | 1003.8 hPa | 0 mm | - | - | - |
| 1778032806 | 16.11° C | 78% | 1003.8 hPa | 0 mm | - | - | - |
| 1778029206 | 16.11° C | 76% | 1004.5 hPa | 0 mm | - | - | - |
| 1778025605 | 16.11° C | 76% | 1005.4 hPa | 0 mm | - | - | - |
| 1778022005 | 16.11° C | 75% | 1005.6 hPa | 0 mm | - | - | - |
| 1778018405 | 16.67° C | 75% | 1006.3 hPa | 0 mm | - | - | - |
| 1778014806 | 16.67° C | 74% | 1006.2 hPa | 0 mm | - | - | - |
| 1778011206 | 17.22° C | 68% | 1005.8 hPa | 0 mm | - | - | - |
| 1778007605 | 18.89° C | 47% | 1005.4 hPa | 0 mm | - | - | - |
| 1778004005 | 19.44° C | 48% | 1005.5 hPa | 0 mm | - | - | - |
| 1778000405 | 20° C | 45% | 1005.4 hPa | 0 mm | - | - | - |
| 1777996806 | 22.22° C | 40% | 1005.6 hPa | 0 mm | - | - | - |
| 1777993206 | 22.78° C | 43% | 1005.4 hPa | 0 mm | - | - | - |
| 1777989605 | 22.78° C | 48% | 1005.7 hPa | 0 mm | - | - | - |
| 1777986005 | 22.22° C | 52% | 1006.4 hPa | 0 mm | - | - | - |
| 1777982406 | 22.22° C | 45% | 1006.8 hPa | 0 mm | - | - | - |
| 1777978806 | 21.67° C | 46% | 1006.9 hPa | 0 mm | - | - | - |
| 1777975206 | 20° C | 64% | 1007.2 hPa | 0 mm | - | - | - |
| 1777971605 | 18.89° C | 65% | 1007.2 hPa | 0 mm | - | - | - |
| 1777968005 | 17.22° C | 66% | 1007.3 hPa | 0 mm | - | - | - |
| 1777964406 | 15° C | 76% | 1007.2 hPa | 0 mm | - | - | - |
* Rain latest hour (hover to see other rain measurements)
** Current wind speed in m/s (hover to see current wind gust speed)